WetterOnline ( http://www.wetteronline.de )

Wetter aktuell Esselbach

Aktuelles Wetter: Würzburg (272m)

6-stündlich | Neueste Meldungen
Ortszeit Temperatur Wetter
Do, 21.06. 2:00 18.2° C wolkenlos
Mi, 20.06. 20:00 28.4° C wolkenlos
Mi, 20.06. 14:00 26.9° C fast wolkenlos
Mi, 20.06. 8:00 19.3° C leicht bewölkt
Mi, 20.06. 2:00 18.4° C bewölkt
Di, 19.06. 20:00 23.8° C bewölkt
Di, 19.06. 14:00 23.4° C bewölkt
Di, 19.06. 8:00 18.5° C fast wolkenlos
Ortszeit Temperatur Wetter
Do, 21.06. 6:30 17.0° C leicht bewölkt
Do, 21.06. 6:20 17.0° C leicht bewölkt
Do, 21.06. 6:10 16.4° C fast wolkenlos
Do, 21.06. 6:00 16.2° C fast wolkenlos
Do, 21.06. 5:50 16.2° C fast wolkenlos
Do, 21.06. 5:40 16.5° C leicht bewölkt
Do, 21.06. 5:30 16.8° C wolkig
Do, 21.06. 5:00 16.7° C leicht bewölkt
Do, 21.06. 4:30 16.8° C wolkenlos
Do, 21.06. 4:00 16.7° C wolkenlos
Do, 21.06. 3:30 17.2° C wolkenlos
Ortszeit Relative Feuchte Sichtweite
Do, 21.06. 2:00 82% 24 km
Mi, 20.06. 20:00 39% 35 km
Mi, 20.06. 14:00 48% 55 km
Mi, 20.06. 8:00 74% 30 km
Mi, 20.06. 2:00 79% 35 km
Di, 19.06. 20:00 54% 45 km
Di, 19.06. 14:00 54% 55 km
Di, 19.06. 8:00 75% 35 km
Ortszeit Relative Feuchte Sichtweite
Do, 21.06. 6:30 88% 15 km
Do, 21.06. 6:20 88% -
Do, 21.06. 6:10 91% -
Do, 21.06. 6:00 91% 14 km
Do, 21.06. 5:50 91% -
Do, 21.06. 5:40 89% -
Do, 21.06. 5:30 88% 23 km
Do, 21.06. 5:00 90% 22 km
Do, 21.06. 4:30 90% 18 km
Do, 21.06. 4:00 90% 18 km
Do, 21.06. 3:30 88% 20 km
Ortszeit Niederschlagsmenge Niederschlagsart
Do, 21.06. 2:00 0.0 l/m2 in 6 Std. -
Mi, 20.06. 20:00 0.0 l/m2 in 12 Std. -
Mi, 20.06. 14:00 0.0 l/m2 in 6 Std. -
Mi, 20.06. 8:00 0.0 l/m2 in 12 Std. -
Mi, 20.06. 2:00 0.0 l/m2 in 6 Std. -
Di, 19.06. 20:00 0.0 l/m2 in 12 Std. -
Di, 19.06. 14:00 0.0 l/m2 in 6 Std. -
Di, 19.06. 8:00 0.0 l/m2 in 12 Std. -
Ortszeit Niederschlagsmenge Niederschlagsart
Do, 21.06. 6:30 0.0 l/m2 in 1 Std. -
Do, 21.06. 6:20 keine Meldung -
Do, 21.06. 6:10 keine Meldung -
Do, 21.06. 6:00 0.0 l/m2 in 1 Std. -
Do, 21.06. 5:50 keine Meldung -
Do, 21.06. 5:40 keine Meldung -
Do, 21.06. 5:30 0.0 l/m2 in 1 Std. -
Do, 21.06. 5:00 0.0 l/m2 in 1 Std. -
Do, 21.06. 4:30 0.0 l/m2 in 1 Std. -
Do, 21.06. 4:00 0.0 l/m2 in 1 Std. -
Do, 21.06. 3:30 0.0 l/m2 in 1 Std. -
Ortszeit Stärke Spitze Richtung
km/h Bft. km/h Grad Sektor
Do, 21.06. 2:00 7 2 14 160° S
Mi, 20.06. 20:00 9 2 24 300° NW
Mi, 20.06. 14:00 4 1 25 210° SW
Mi, 20.06. 8:00 6 1 13 20° N
Mi, 20.06. 2:00 6 1 22 360° N
Di, 19.06. 20:00 7 2 25 10° N
Di, 19.06. 14:00 13 3 28 290° W
Di, 19.06. 8:00 14 3 25 280° W
Ortszeit Stärke Spitze Richtung
km/h Bft. km/h Grad Sektor
Do, 21.06. 6:30 4 1 7 140° SO
Do, 21.06. 6:20 4 1 - 140° SO
Do, 21.06. 6:10 4 1 - 150° SO
Do, 21.06. 6:00 7 2 7 160° S
Do, 21.06. 5:50 7 2 - 160° S
Do, 21.06. 5:40 4 1 - 160° S
Do, 21.06. 5:30 0 0 4 - -
Do, 21.06. 5:00 0 0 7 - -
Do, 21.06. 4:30 4 1 7 180° S
Do, 21.06. 4:00 6 1 7 160° S
Do, 21.06. 3:30 4 1 7 160° S
Ortszeit Untergrenze Bedeckung Gattung
total tief tief mittel hoch
Do, 21.06. 2:00 - 0/8 0/8 - - -
Mi, 20.06. 20:00 - 0/8 0/8 - - -
Mi, 20.06. 14:00 1320 m 1/8 1/8 - - -
Mi, 20.06. 8:00 1350 m 3/8 3/8 - - -
Mi, 20.06. 2:00 1320 m 7/8 7/8 - - -
Di, 19.06. 20:00 1500 m 7/8 8/8 - - -
Di, 19.06. 14:00 1350 m 7/8 7/8 - - -
Di, 19.06. 8:00 12000 m 1/8 0/8 - - -
Ortszeit Bedeckungsgrad in Achtel und Wolkenuntergrenze
Do, 21.06. 6:30 1(1800m)
Do, 21.06. 6:20 1(1800m) 2(2400m)
Do, 21.06. 6:10 1(1800m)
Do, 21.06. 6:00 1(1800m)
Do, 21.06. 5:50 1(1800m) 1(10500m)
Do, 21.06. 5:40 1(1500m) 2(10500m)
Do, 21.06. 5:30 3(1800m) 5(2100m)
Do, 21.06. 5:00 4(2100m) 5(12000m)
Do, 21.06. 4:30 keine Wolken
Do, 21.06. 4:00 keine Wolken
Do, 21.06. 3:30 keine Wolken
Ortszeit Luftdruck NN (hPa) Tendenz (hPa in 3 Std.)
Do, 21.06. 2:00 1017 - 0,9
Mi, 20.06. 20:00 1017 - 1,3
Mi, 20.06. 14:00 1020 - 1,4
Mi, 20.06. 8:00 1023 - 0,3
Mi, 20.06. 2:00 1024 0,0
Di, 19.06. 20:00 1023 - 0,2
Di, 19.06. 14:00 1024 0,0
Di, 19.06. 8:00 1024 + 0,8
Ortszeit Luftdruck NN (hPa) Tendenz (hPa in 3 Std.)
Do, 21.06. 6:30 1015 - 1,1
Do, 21.06. 6:20 1015 keine Meldung
Do, 21.06. 6:10 1016 keine Meldung
Do, 21.06. 6:00 1016 - 1,2
Do, 21.06. 5:50 1016 keine Meldung
Do, 21.06. 5:40 1016 keine Meldung
Do, 21.06. 5:30 1016 - 1,4
Do, 21.06. 5:00 1016 - 1,5
Do, 21.06. 4:30 1016 - 1,4
Do, 21.06. 4:00 1016 - 1,4
Do, 21.06. 3:30 1017 - 1,2
Ortszeit Schneehöhe (cm)
Do, 21.06. 2:00 -
Mi, 20.06. 20:00 -
Mi, 20.06. 14:00 -
Mi, 20.06. 8:00 -
Mi, 20.06. 2:00 -
Di, 19.06. 20:00 -
Di, 19.06. 14:00 -
Di, 19.06. 8:00 -
Ortszeit Schneehöhe (cm)
Do, 21.06. 6:30 -
Do, 21.06. 6:20 -
Do, 21.06. 6:10 -
Do, 21.06. 6:00 -
Do, 21.06. 5:50 -
Do, 21.06. 5:40 -
Do, 21.06. 5:30 -
Do, 21.06. 5:00 -
Do, 21.06. 4:30 -
Do, 21.06. 4:00 -
Do, 21.06. 3:30 -
Link zu dieser Seite / Seite empfehlen

Das Wetter in ...